Location: Harwich
(41.7160°N, 69.9939°W)
Time: 10:13:04
(UTC+01:00)

S-56A Canister/Altair - Visible Passes

Search period start: 28 January 2023 00:00
Search period end: 07 February 2023 00:00
Orbit: 638 x 2493 km, 38.9° (Epoch: 26 January)

Date Brightness Start Highest point End Pass type
(mag) Time Alt. Az. Time Alt. Az. Time Alt. Az.
28 Jan 10.6 00:33:30 10° W 00:42:26 36° SSW 00:54:21 10° SSE visible
28 Jan 11.6 02:42:30 10° WSW 02:47:09 13° SW 02:52:11 10° SSW visible
29 Jan 10.5 00:00:42 10° W 00:09:15 38° SSW 00:20:59 10° SSE visible
29 Jan 11.6 02:08:21 10° WSW 02:14:00 15° SW 02:20:19 10° SSW visible
29 Jan 10.4 23:27:58 10° W 23:36:06 41° SSW 23:47:34 10° SE visible
30 Jan 11.5 01:34:40 10° WSW 01:40:51 16° SW 01:48:00 10° S visible
31 Jan 11.4 01:01:17 10° WSW 01:07:43 18° SW 01:15:26 10° S visible
01 Feb 11.3 00:28:06 10° WSW 00:34:37 20° SW 00:42:39 10° S visible
01 Feb 11.3 23:55:05 10° W 00:01:33 21° SW 00:09:45 10° S visible
02 Feb 11.2 23:22:11 10° W 23:28:31 23° SSW 23:36:44 10° SSE visible
